Wind_Speed
21 20 20 21 21 21 21 21 20 20 21 21 21 21 21 21 21 21 22 22 22 23 23 23 22 22 23 22 22 22 21 21 21 20 20 21 21 21 20 20 20 20 20 20
21 22 21 21 21 21 21 21 22 22 22 22 22 22 22 22 22 22 22 23 23 24 24 24 23 24 23 23 24 24 23 23 22 21 21 21 21 22 22 22 22 22 21 21
19 20 21 22 21 21 21 22 22 22 22 22 22 22 22 22 23 23 23 23 24 24 24 24 24 24 24 24 24 25 24 24 23 22 22 22 23 23 24 24 23 23 22 22
19 20 20 21 21 21 22 22 22 23 22 22 22 22 22 22 22 22 22 23 24 24 23 23 24 23 24 24 25 26 26 25 25 24 24 24 24 25 25 25 24 24 23 24
20 20 21 22 22 22 22 22 22 22 22 22 21 22 22 21 21 22 23 23 23 23 24 24 24 24 24 24 25 25 25 25 26 25 25 26 25 25 25 25 25 24 24 24
22 21 21 22 22 21 21 22 21 21 21 21 21 21 22 22 22 22 21 21 22 23 24 25 25 25 26 26 26 26 26 26 26 26 27 27 26 25 25 24 25 25 25 25
23 23 23 22 21 22 21 22 21 21 20 20 20 21 21 22 22 22 22 22 22 22 23 24 24 25 26 26 26 26 26 27 27 27 27 26 26 26 26 26 26 26 26 26
22 22 23 22 22 22 22 22 21 20 20 20 20 20 21 21 21 22 22 23 23 24 24 24 25 25 25 26 26 25 25 25 26 26 25 25 25 26 26 26 26 26 26 26
22 23 23 22 22 22 22 22 21 20 21 21 21 21 21 21 22 22 23 23 24 25 25 26 26 26 26 25 25 25 25 24 24 24 24 24 24 25 26 26 27 27 26 27
23 23 22 21 21 21 21 21 21 21 21 21 22 22 22 22 23 23 23 24 25 25 26 26 26 26 26 26 26 25 25 24 24 23 24 24 24 25 25 26 26 26 27 27
23 22 22 21 21 21 21 20 20 21 21 22 22 23 23 23 24 24 25 25 25 25 25 24 24 25 25 25 25 25 25 24 24 24 25 25 25 26 26 26 26 26 27 27
23 22 21 21 21 21 21 20 21 21 21 22 22 23 23 24 24 25 25 25 25 25 26 25 24 24 25 26 25 25 25 25 25 25 25 25 26 26 27 26 26 27 27 27
22 22 22 21 21 21 21 22 22 22 22 22 23 24 24 24 24 24 25 25 25 25 25 25 25 25 25 25 25 25 25 25 25 25 25 25 25 26 26 26 26 26 26 26
23 23 23 23 23 22 22 22 23 23 23 24 24 25 25 25 24 25 25 25 25 25 25 25 25 25 25 25 24 25 25 25 25 25 25 25 26 26 25 25 25 25 25 25
23 23 23 23 22 22 23 22 23 23 24 24 24 25 25 25 25 25 24 24 25 24 25 25 25 25 24 24 24 25 25 25 25 25 25 25 25 25 24 24 24 24 24 24
22 23 24 24 23 23 23 24 24 24 24 24 24 24 24 24 24 25 24 24 24 24 25 25 24 24 24 23 23 24 24 24 24 24 24 24 23 23 23 23 23 23 23 24
22 22 23 24 23 23 24 24 24 25 25 24 24 24 23 23 23 24 24 24 24 24 24 24 23 23 23 23 22 22 22 23 23 23 23 22 22 22 22 22 22 23 23 23
21 21 22 22 22 22 23 23 24 25 25 25 25 24 23 23 23 23 23 24 24 24 24 24 24 24 23 23 23 21 21 21 21 21 21 21 21 21 22 22 22 22 22 22
20 20 21 21 22 22 22 22 22 23 23 23 23 23 23 23 23 23 23 23 24 24 24 24 24 23 23 23 22 21 20 20 20 20 21 21 20 21 21 21 21 22 22 22
20 20 20 20 20 21 21 21 21 21 21 21 21 21 22 22 22 22 22 22 23 23 23 23 23 23 22 22 21 21 20 19 19 19 20 20 20 20 20 20 20 20 21 21
18 18 18 19 19 19 19 20 19 19 20 20 20 20 20 20 21 21 21 21 21 22 22 21 21 21 21 21 20 20 19 19 18 19 19 19 19 19 19 19 19 20 20 21
17 18 18 18 18 18 18 17 17 17 18 18 19 19 19 19 19 19 20 20 20 20 20 20 20 20 20 20 19 19 18 18 18 18 18 18 19 19 19 19 19 19 20 20
17 17 17 17 17 17 16 16 16 17 18 18 18 18 18 19 19 19 19 20 19 19 18 18 18 19 19 19 19 19 19 18 18 18 18 18 19 19 19 19 19 19 20 20
17 17 17 16 17 17 16 16 17 17 17 17 17 17 18 19 19 19 19 19 19 19 19 18 18 18 18 18 18 19 19 19 18 18 19 19 19 19 19 19 19 19 19 18
17 17 16 17 17 17 17 17 16 16 17 17 17 17 17 18 18 18 18 18 18 18 18 18 17 18 18 18 19 19 20 20 19 19 19 19 19 19 19 19 18 18 18 18
16 17 17 17 17 17 17 16 16 16 16 17 17 17 17 18 18 18 18 18 18 18 18 18 18 19 19 19 19 20 20 20 20 20 20 19 19 19 19 19 19 18 18 19
16 16 16 16 16 16 16 16 16 16 16 17 17 17 17 17 17 18 18 18 18 18 18 18 18 18 19 19 19 19 20 20 21 21 21 20 20 20 20 19 19 19 19 20
Wind_Direction
239 242 244 245 247 248 249 249 253 256 260 262 264 266 266 265 265 265 264 265 268 270 271 273 274 276 278 275 273 274 275 276 278 281 284 285 283 281 279 280 282 283 283 282
243 244 246 247 247 249 250 252 255 258 261 263 265 267 268 267 267 267 265 265 269 271 272 274 275 276 277 276 274 274 274 274 277 280 282 282 282 280 278 279 279 280 279 279
247 246 249 251 250 250 252 254 257 260 262 264 265 267 267 267 267 268 266 264 266 270 272 272 273 274 276 274 273 275 275 275 275 278 281 280 281 282 280 278 277 276 276 277
249 247 248 250 250 252 254 256 258 261 264 265 265 266 266 264 265 266 266 264 265 267 271 273 273 272 274 273 274 274 274 275 276 276 278 280 281 281 280 276 274 273 273 274
249 253 255 252 251 252 254 256 259 261 263 264 266 267 266 265 264 265 266 266 265 265 270 274 274 275 275 276 277 276 275 275 276 275 277 279 279 279 277 275 272 270 271 274
248 251 255 256 255 255 256 256 259 262 262 263 264 265 265 266 266 268 271 272 271 269 270 273 275 276 276 277 279 279 276 276 276 278 280 278 276 276 275 274 274 272 271 272
249 251 253 256 257 257 257 259 261 261 262 264 267 267 268 270 271 271 273 275 275 275 274 274 275 275 275 276 279 280 277 275 276 277 278 277 275 273 273 272 273 273 272 272
249 251 254 255 257 256 256 258 260 260 262 265 267 268 267 269 271 272 274 275 276 277 277 277 278 278 278 278 278 280 279 277 277 278 277 276 275 273 271 271 272 274 274 272
250 252 255 257 258 257 256 257 259 259 261 264 267 268 267 268 269 271 273 275 277 278 278 277 277 278 279 280 280 281 279 279 279 278 278 278 277 275 274 274 274 274 274 273
251 253 256 258 259 258 258 257 258 258 260 264 266 267 268 267 268 270 272 275 278 279 280 280 278 277 278 279 280 280 279 279 279 278 278 278 278 276 275 275 275 273 274 274
250 254 257 258 258 259 258 258 257 258 261 264 265 266 266 267 268 271 273 275 277 279 280 281 281 279 279 280 279 279 279 280 280 279 279 278 278 277 276 275 273 273 274 275
251 254 256 257 256 255 254 256 256 257 261 266 267 268 269 270 270 272 273 274 276 278 281 281 282 281 280 279 278 279 280 281 282 281 280 279 278 278 277 275 273 273 276 278
250 252 254 255 254 254 254 257 259 261 264 267 269 270 272 272 271 272 274 275 276 278 280 281 281 283 283 281 277 277 279 280 280 280 282 281 280 280 278 276 275 276 277 277
249 251 253 255 255 255 258 260 261 262 265 267 269 270 271 271 271 273 275 277 278 279 280 281 282 283 283 282 280 277 278 280 281 282 281 282 282 282 279 277 276 276 278 279
251 253 256 258 260 261 262 263 263 263 264 267 270 271 271 271 272 274 276 277 278 279 280 282 282 284 284 282 282 280 278 279 281 282 281 281 282 281 281 279 279 279 279 279
255 255 257 259 260 262 264 265 265 265 267 269 270 270 271 272 273 274 276 277 277 278 280 281 282 284 285 283 281 282 279 278 280 282 282 282 281 279 280 280 281 282 283 282
255 257 258 259 261 263 265 266 267 267 268 270 271 271 271 272 274 275 276 277 277 278 279 280 281 283 283 283 283 283 282 280 280 281 282 281 280 279 279 280 282 282 282 282
255 256 257 258 261 263 265 267 268 267 267 268 269 268 269 271 273 274 275 277 277 277 279 279 280 281 281 282 283 282 280 281 283 282 280 280 281 281 282 282 282 282 283 283
258 257 258 260 262 265 266 268 267 266 267 268 266 267 268 271 273 274 275 277 277 276 278 279 279 279 280 280 281 281 281 282 282 281 280 280 281 282 282 282 282 283 283 285
259 258 258 261 264 265 267 268 268 268 268 269 268 268 270 271 272 273 274 277 278 278 278 279 278 278 279 278 278 280 283 283 282 282 282 282 280 282 284 285 284 284 284 284
257 257 259 262 265 267 268 268 267 266 267 269 269 269 270 271 272 274 276 278 279 279 279 278 278 277 277 278 277 276 278 281 282 284 284 284 284 286 287 286 285 285 284 284
258 259 263 265 267 269 270 269 268 267 267 269 269 268 269 271 273 275 275 277 278 279 278 278 277 277 276 277 277 276 276 278 281 284 285 285 287 288 289 288 287 287 287 286
259 260 262 264 266 268 270 270 270 268 268 269 270 269 269 270 273 275 275 276 276 276 277 277 278 278 277 278 277 276 276 277 280 282 285 287 287 287 290 290 288 286 286 286
259 261 262 264 266 269 270 270 270 270 269 270 272 272 272 272 273 273 276 277 275 274 274 275 277 278 277 277 276 276 277 278 280 280 283 287 287 287 289 290 289 289 289 288
259 262 264 266 268 269 268 269 271 272 270 270 273 275 275 275 275 275 276 277 277 276 274 274 275 277 277 278 279 278 276 277 280 282 283 286 287 288 289 290 289 290 291 291
262 263 266 267 268 270 268 268 271 272 272 272 274 277 277 278 277 276 277 278 278 276 275 276 276 276 277 279 279 279 276 276 278 280 282 284 286 288 289 290 289 288 288 289
264 266 267 268 268 269 269 269 270 272 274 276 278 277 278 278 278 278 278 278 278 276 275 276 276 277 278 280 280 279 278 277 279 281 283 283 285 288 289 288 287 287 287 287
Height
5820 5821 5822 5824 5825 5827 5828 5830 5832 5832 5832 5832 5832 5832 5832 5832 5832 5832 5832 5832 5831 5831 5830 5830 5829 5829 5828 5828 5827 5827 5826 5825 5824 5823 5822 5820 5819 5818 5817 5816 5815 5814 5814 5812
5814 5816 5817 5818 5819 5821 5822 5824 5825 5825 5826 5826 5826 5826 5826 5826 5826 5826 5826 5825 5825 5825 5824 5824 5824 5823 5822 5822 5821 5821 5820 5819 5818 5817 5816 5815 5814 5813 5811 5810 5810 5809 5808 5806
5809 5810 5811 5813 5814 5815 5816 5818 5819 5819 5820 5820 5820 5820 5820 5820 5820 5819 5819 5819 5819 5818 5818 5818 5817 5817 5816 5816 5815 5814 5813 5813 5812 5811 5810 5809 5808 5806 5805 5804 5803 5802 5801 5800
5804 5806 5807 5810 5808 5810 5811 5811 5812 5813 5813 5813 5813 5814 5814 5814 5813 5813 5813 5812 5812 5812 5811 5811 5810 5810 5809 5809 5808 5807 5807 5806 5805 5804 5803 5802 5801 5799 5798 5797 5796 5795 5794 5793
5798 5799 5800 5801 5802 5803 5804 5805 5806 5806 5807 5807 5807 5807 5807 5807 5807 5807 5807 5806 5806 5805 5805 5805 5804 5804 5803 5802 5801 5800 5799 5798 5797 5796 5796 5795 5793 5792 5790 5789 5788 5787 5787 5786
5792 5793 5794 5796 5796 5796 5799 5799 5800 5800 5800 5801 5801 5801 5801 5801 5801 5801 5801 5800 5799 5799 5798 5798 5797 5797 5796 5795 5794 5792 5791 5791 5790 5789 5788 5786 5785 5784 5783 5782 5781 5780 5779 5779
5786 5787 5787 5789 5789 5791 5793 5794 5793 5793 5794 5794 5795 5795 5795 5794 5794 5794 5794 5794 5793 5792 5792 5791 5790 5789 5788 5787 5786 5785 5784 5783 5782 5781 5780 5778 5777 5776 5775 5774 5773 5772 5772 5771
5779 5781 5783 5782 5783 5785 5785 5786 5786 5787 5788 5788 5788 5788 5788 5788 5788 5788 5788 5787 5787 5786 5785 5784 5783 5782 5781 5780 5779 5778 5776 5775 5774 5773 5772 5770 5769 5768 5767 5766 5765 5764 5764 5763
5774 5775 5775 5775 5776 5777 5778 5779 5779 5780 5781 5782 5782 5782 5782 5782 5782 5782 5781 5780 5780 5779 5778 5777 5776 5775 5773 5772 5771 5770 5769 5768 5766 5765 5764 5763 5762 5761 5760 5759 5757 5756 5756 5755
5766 5767 5767 5768 5769 5770 5771 5772 5773 5774 5774 5775 5775 5775 5775 5775 5775 5775 5774 5773 5773 5772 5771 5770 5768 5767 5766 5765 5764 5762 5761 5760 5759 5758 5756 5755 5754 5753 5752 5751 5750 5749 5748 5747
5758 5760 5761 5762 5763 5763 5764 5765 5766 5767 5768 5768 5768 5768 5768 5768 5768 5767 5767 5766 5765 5764 5763 5762 5761 5760 5758 5757 5756 5755 5754 5753 5751 5750 5749 5748 5746 5745 5744 5743 5742 5741 5740 5739
5752 5754 5754 5755 5756 5757 5758 5759 5760 5760 5761 5761 5761 5761 5761 5761 5760 5760 5759 5759 5758 5757 5756 5755 5753 5752 5751 5750 5748 5747 5746 5745 5744 5742 5741 5740 5738 5737 5735 5734 5733 5733 5732 5730
5745 5746 5747 5748 5749 5750 5751 5752 5752 5753 5753 5754 5754 5753 5753 5753 5753 5752 5752 5751 5750 5749 5748 5747 5746 5744 5743 5742 5741 5740 5738 5737 5736 5734 5733 5732 5730 5729 5727 5726 5725 5724 5723 5722
5738 5739 5740 5742 5742 5743 5744 5744 5745 5745 5746 5746 5746 5746 5745 5745 5745 5745 5744 5743 5743 5742 5741 5739 5738 5736 5735 5734 5732 5731 5730 5729 5728 5727 5725 5724 5722 5721 5719 5718 5717 5716 5715 5714
5731 5732 5733 5734 5735 5736 5737 5737 5738 5738 5738 5738 5738 5738 5737 5737 5737 5737 5736 5735 5735 5734 5733 5732 5730 5729 5727 5726 5725 5724 5722 5721 5720 5719 5717 5716 5714 5713 5711 5710 5709 5708 5707 5706
5724 5725 5726 5727 5728 5729 5729 5730 5730 5731 5731 5731 5730 5730 5730 5730 5730 5729 5728 5727 5727 5726 5725 5724 5723 5721 5720 5718 5717 5716 5714 5713 5712 5711 5709 5708 5706 5705 5704 5703 5701 5700 5699 5697
5718 5718 5719 5720 5721 5721 5722 5722 5722 5723 5723 5723 5723 5723 5722 5722 5722 5721 5720 5720 5719 5718 5717 5717 5715 5714 5713 5711 5710 5708 5707 5706 5705 5703 5702 5700 5699 5698 5697 5695 5694 5692 5691 5689
5710 5711 5712 5713 5713 5713 5714 5714 5714 5714 5714 5715 5715 5715 5715 5715 5714 5714 5713 5712 5711 5711 5710 5709 5708 5707 5706 5704 5703 5701 5700 5699 5697 5696 5695 5694 5692 5691 5690 5688 5686 5685 5684 5682
5703 5704 5705 5705 5706 5706 5706 5706 5706 5706 5706 5706 5707 5707 5707 5707 5707 5706 5705 5704 5703 5703 5702 5701 5700 5699 5698 5697 5696 5695 5693 5692 5691 5689 5688 5687 5685 5684 5683 5681 5680 5678 5677 5675
5696 5697 5698 5698 5698 5699 5699 5699 5699 5699 5699 5699 5699 5699 5699 5699 5699 5698 5698 5697 5696 5695 5694 5693 5692 5692 5691 5690 5690 5689 5687 5686 5684 5683 5681 5680 5679 5678 5676 5674 5673 5671 5670 5669
5690 5691 5691 5692 5692 5692 5691 5691 5691 5691 5692 5692 5692 5692 5692 5692 5692 5691 5691 5690 5689 5687 5686 5686 5685 5685 5684 5683 5683 5682 5681 5680 5678 5677 5675 5674 5673 5671 5670 5668 5667 5665 5664 5662
5684 5685 5685 5686 5686 5686 5685 5685 5685 5685 5685 5685 5685 5686 5685 5685 5685 5684 5684 5683 5682 5681 5680 5679 5679 5678 5677 5677 5676 5675 5674 5673 5672 5671 5670 5668 5667 5665 5663 5662 5660 5659 5657 5656
5679 5679 5679 5680 5680 5680 5680 5679 5679 5679 5679 5679 5679 5679 5679 5679 5678 5678 5678 5677 5676 5675 5674 5673 5673 5672 5671 5670 5670 5669 5668 5667 5666 5665 5664 5662 5661 5659 5658 5656 5654 5653 5651 5650
5673 5673 5674 5674 5674 5674 5674 5674 5674 5674 5674 5673 5673 5673 5673 5672 5672 5671 5671 5670 5669 5668 5668 5667 5666 5666 5665 5664 5663 5662 5662 5661 5660 5659 5658 5656 5655 5653 5652 5650 5649 5647 5645 5644
5668 5668 5668 5668 5668 5669 5668 5668 5668 5668 5668 5667 5667 5667 5667 5666 5666 5665 5664 5663 5663 5662 5661 5661 5660 5659 5659 5658 5657 5656 5656 5655 5654 5653 5652 5650 5649 5647 5646 5644 5643 5641 5639 5638
5662 5662 5662 5663 5663 5663 5663 5663 5663 5662 5662 5662 5662 5661 5661 5660 5659 5659 5658 5657 5656 5656 5655 5655 5654 5653 5652 5651 5650 5649 5649 5648 5647 5646 5645 5644 5643 5641 5640 5638 5636 5635 5633 5632
5657 5657 5657 5657 5657 5657 5657 5657 5657 5657 5656 5656 5656 5655 5655 5654 5653 5653 5652 5651 5650 5649 5649 5648 5647 5647 5646 5645 5644 5643 5642 5641 5640 5639 5638 5637 5636 5635 5633 5631 5630 5628 5627 5625